#timestamp,LO_Frequency,Hit,StdDev 
1514512815.4,286047001.9,N
1514512835.2,286046999.8,N
1514512855.1,286047002.2,N
1514512856.0,286047002.2,N
1514512875.8,286046999.8,N
1514512895.7,286047000.2,N
1514512915.5,286047000.8,N
1514512935.3,286047000.6,N
1514512955.2,286047000.5,N
1514512975.0,286047000.0,N
1514512975.9,286047000.0,N
1514512995.7,286047000.1,N
1514513015.6,286047002.4,N
1514513035.4,286047002.4,N
1514513055.3,286047002.7,N
1514513075.1,286047001.0,N
1514513095.8,286046998.5,N
1514513115.7,286047001.1,N
1514513135.5,286046998.5,N
1514513155.4,286046998.3,N
1514513175.2,286046999.9,N
1514513195.0,286047002.3,N
1514513195.9,286047002.3,N
1514513215.8,286047002.7,N
1514513235.6,286047001.9,N
1514513255.4,286047000.9,N
1514513275.3,286046999.7,N
1514513295.1,286046999.9,N
1514513315.9,286047001.9,N
1514513335.7,286047002.4,N
1514513355.5,286047001.8,N
1514513375.4,286047002.7,N
1514513395.2,286047000.1,N
1514513415.1,286047002.6,N
1514513416.0,286047002.6,N
1514513435.8,286047002.1,N
1514513455.7,286047004.2,Y
1514513475.5,286047002.3,P
1514513495.3,286046999.8,N
1514513515.2,286047001.0,N
1514513535.0,286047001.1,N
1514513535.9,286047001.1,N
1514513555.7,286047000.6,N
1514513575.6,286047002.4,Y
1514513595.4,286046998.2,P
1514513615.3,286047000.6,N
1514513635.1,286046998.6,N
1514513655.9,286046998.1,N
1514513675.7,286046998.7,N
1514513695.5,286046998.9,N
1514513715.4,286046998.6,N
1514513735.2,286046998.9,N
1514513755.1,286046999.5,N
1514513756.0,286046999.5,N
1514513775.8,286046997.0,Y
1514513795.6,286046999.2,P
1514513815.5,286046998.2,P
1514513835.3,286047000.3,N
1514513855.2,286047001.6,N
1514513875.9,286047002.8,N
1514513895.7,286047001.6,N
1514513915.6,286046998.6,N
1514513935.4,286047000.4,N
1514513955.3,286047000.0,N
1514513975.1,286047000.5,N
1514513995.8,286047000.0,N
1514514015.7,286046998.2,N
1514514035.5,286046998.5,N
1514514055.4,286046998.6,N
1514514075.2,286047000.4,N
1514514095.0,286047000.7,N
1514514096.0,286047000.7,N
1514514115.8,286047000.2,N
1514514135.6,286047000.0,N
1514514155.5,286047000.2,N
1514514175.3,286047002.4,N
1514514195.1,286047002.8,N
1514514215.9,286047002.0,N
1514514235.7,286047002.5,N
1514514255.6,286047000.1,N
1514514275.4,286047001.2,N
1514514295.2,286046998.4,N
1514514315.1,286046998.8,N
1514514316.0,286046998.8,N
1514514335.8,286046998.5,N
1514514355.7,286047000.0,N
1514514375.5,286047000.6,N
1514514395.3,286047002.7,N
1514514415.2,286047011.9,Y
1514514435.0,286047000.8,P
1514514435.9,286047000.8,P
1514514455.8,286046998.5,P
1514514475.6,286047000.5,N
1514514495.4,286047000.7,N
1514514515.3,286046998.6,N
1514514535.1,286047001.2,N
1514514555.8,286046999.0,N
1514514575.7,286046998.3,N
1514514595.5,286046998.9,N
1514514615.4,286046998.6,N
1514514635.2,286046998.1,N
1514514655.0,286047000.6,N
1514514655.9,286047000.6,N
1514514675.8,286046998.1,N
1514514695.6,286046998.4,N
1514514715.4,286046998.4,N
1514514735.3,286046998.2,N
1514514755.1,286046999.0,N
1514514775.9,286046998.8,N
1514514795.7,286047001.1,N
1514514815.5,286046999.0,N
1514514835.4,286046998.5,N
1514514855.2,286046998.8,N
1514514875.0,286047000.7,N
1514514876.0,286047000.7,N
1514514895.8,286047001.2,N
1514514915.6,286047000.9,N
1514514935.5,286047000.8,N
1514514955.3,286046998.6,N
1514514975.1,286047000.6,N
1514514995.9,286047000.3,N
1514515015.7,286047001.0,N
1514515035.6,286047000.1,N
1514515055.4,286047000.2,N
1514515075.2,286047000.1,N
1514515095.1,286047000.6,N
1514515096.0,286047000.6,N
1514515115.8,286047002.6,N
1514515135.6,286046999.7,N
1514515155.5,286047002.3,N
1514515175.3,286047001.3,N
1514515195.2,286047003.9,Y
1514515215.9,286047004.3,P
1514515235.7,286047003.2,N
1514515255.6,286047005.5,P
1514515275.4,286047002.9,N
1514515295.3,286047003.0,N
1514515315.1,286047003.8,N
1514515316.0,286047003.8,N
1514515335.8,286047003.5,N
1514515355.7,286047004.0,N
1514515375.5,286047001.7,N
1514515395.3,286047002.5,N
1514515415.2,286047002.3,N
1514515435.0,286047002.7,N
1514515435.9,286047002.7,N
1514515455.8,286047000.8,N
1514515475.6,286047000.5,N
1514515495.4,286046998.5,N
1514515515.3,286046997.3,N
1514515535.1,286046996.5,N
1514515555.8,286046997.0,N
1514515575.7,286046998.7,N
1514515595.5,286046996.8,N
1514515615.4,286046995.2,N
1514515635.2,286046997.5,N
1514515655.0,286046995.2,N
1514515655.9,286046995.2,N
1514515675.8,286046997.7,N
1514515695.6,286046996.7,N
1514515715.4,286046998.9,N
1514515735.3,286046999.6,N
1514515755.1,286046997.0,N
1514515775.9,286046997.7,N
1514515795.7,286046997.8,N
1514515815.5,286046999.4,N
1514515835.4,286046996.9,N
1514515855.2,286046997.5,N
1514515875.0,286046996.5,N
1514515875.9,286046996.5,N
1514515895.8,286046998.0,N
1514515915.6,286046995.0,N
1514515935.5,286046993.6,N
1514515955.3,286046993.5,N
1514515975.1,286046995.9,N
1514515995.9,286046996.2,N
1514516015.7,286046993.4,Y
1514516035.6,286046997.7,P
1514516055.4,286046996.5,P
1514516075.2,286046999.1,N
1514516095.1,286046998.0,N
1514516096.0,286046998.0,N
1514516115.8,286046993.3,Y
1514516135.6,286046997.6,P
1514516155.5,286046995.3,P
1514516175.3,286046997.2,N
1514516195.2,286046997.7,N
1514516215.9,286046997.2,Y
1514516235.7,286047000.7,P
1514516255.6,286047001.2,N
1514516275.4,286046999.8,N
1514516295.2,286047000.5,N
1514516315.1,286047000.6,N
1514516316.0,286047000.6,N
1514516335.8,286047000.3,N
1514516355.7,286047004.4,Y
1514516375.5,286047002.5,P
1514516395.3,286047002.7,N
